sat.trackr.live / text

‹ back to catalog

STARLINK-36181

NORAD 68047 · 2026-041H

PAYLOAD ACTIVE UNKNOWN

§ Identity

Operator
Country
US
Launch date
2026-03-02
Launch site
AFETR
Launch vehicle
Mass (kg)
RCS (m²)

Purposes: comms

External: N2YO · Heavens-Above · Gunter

§ Orbital elements

Epoch: 2026-09-19T21:38:59.690400Z

Period
93.85 min
Inclination
53.1575°
Eccentricity
0.0001468
Mean motion
15.34394188 rev/d
Perigee alt
461.7 km
Apogee alt
463.7 km
Semi-major
6,840.9 km
B*
8.0612e-4
RAAN
224.1856°
Arg perigee
80.1780°
Mean anomaly
279.9388°
Rev number
3,117

§ Raw data

STARLINK-361811 68047U 26041H   26262.90207975  .00026953  00000+0  80612-3 0  99992 68047  53.1575 224.1856 0001468  80.1780 279.9388 15.34394188 31178

JSON: /api/v1/satellites/68047 · /tle

For live sub-satellite position, see the globe view (requires WebGL).

§ Visibility from observer

Set your observer location to see the next 7 days of passes ≥ 10°. The values pass through the URL so the page stays shareable.

No JS? Fill the form by hand. The geolocation button needs JavaScript.